Lapse_Rate
7.3 7.0 7.2 6.9 6.8 6.6 6.5 6.3 5.9 6.7 6.0 5.0 5.9 5.6 7.0 6.9 7.1 7.4 7.5 7.2 7.1 6.8 5.9 6.2 6.4 6.0 5.7 5.4 5.1 5.1 4.8 4.6 4.4 4.1 3.7 3.6 3.6 3.7 4.0 4.2 4.1 3.8 4.0 4.4
7.3 7.4 7.3 7.1 6.9 6.7 6.6 6.3 6.5 6.2 6.0 5.1 5.3 5.5 6.3 7.1 7.8 7.4 7.4 7.1 6.8 6.6 6.6 6.6 6.4 6.1 5.7 5.3 5.1 4.9 4.8 4.7 4.4 4.2 3.8 3.5 3.5 4.1 4.3 4.1 3.8 3.7 3.7 4.2
7.5 7.7 7.5 7.1 6.9 6.7 6.6 6.4 6.3 5.7 5.6 5.2 5.1 5.1 5.7 6.8 7.1 7.4 7.6 7.1 6.7 6.6 6.3 6.3 6.2 6.0 5.5 5.4 5.2 5.0 4.8 4.6 4.3 4.2 3.7 3.4 3.8 4.1 4.4 3.9 3.7 3.6 3.7 4.4
7.2 7.6 7.5 7.1 7.0 6.8 6.3 6.7 6.3 5.9 5.1 4.6 5.1 3.4 4.4 6.1 6.8 7.4 7.2 6.9 6.3 6.2 6.3 6.2 6.1 5.7 5.3 5.1 5.0 4.9 4.8 4.4 4.2 4.1 3.8 3.8 4.0 4.4 4.1 3.8 3.5 3.4 3.9 4.8
7.7 7.4 7.3 7.1 7.2 6.9 6.5 6.4 6.2 5.8 5.4 4.5 4.6 3.3 5.1 5.4 5.8 7.2 6.8 6.5 6.5 6.4 5.9 5.7 5.6 5.2 5.1 5.0 4.9 4.8 4.5 4.2 4.2 4.0 3.8 4.0 4.1 4.1 3.8 3.6 3.5 3.5 4.4 4.8
7.7 7.4 7.1 7.2 7.1 6.7 6.6 6.1 5.8 5.5 5.5 2.7 5.6 4.3 3.5 5.6 6.1 6.7 6.9 6.6 6.6 6.3 5.8 5.8 5.3 5.2 5.0 4.8 4.7 4.4 4.3 4.2 4.1 3.9 3.8 3.9 4.0 3.8 3.4 3.4 3.3 3.8 4.4 4.6
7.8 7.5 7.2 7.1 6.9 6.7 6.5 6.0 5.5 4.0 3.2 3.6 5.0 3.3 4.8 5.9 6.5 6.7 6.3 6.3 6.2 5.7 5.5 5.3 4.9 4.7 4.7 4.6 4.4 4.3 4.3 4.2 4.1 3.8 3.9 3.9 3.7 3.4 3.3 3.3 3.3 3.9 4.2 4.4
7.4 6.8 7.5 7.1 7.2 6.7 6.7 6.2 6.1 3.8 3.1 4.6 4.6 3.7 5.8 5.8 6.5 6.3 6.4 6.2 5.7 5.2 5.0 4.7 4.5 4.4 4.3 4.2 4.2 4.2 4.1 4.1 4.1 3.9 3.8 3.6 3.4 3.3 3.2 3.2 3.5 3.7 4.2 4.5
7.5 7.1 7.1 6.9 6.8 6.8 6.2 5.9 6.6 6.5 5.4 3.6 4.9 5.0 5.0 5.6 6.7 6.3 6.4 5.9 5.3 4.9 4.7 4.4 4.4 4.2 3.9 3.8 4.0 4.0 4.0 3.9 3.8 3.6 3.5 3.4 3.3 3.1 3.1 3.4 3.6 3.9 4.3 4.8
8.0 7.6 7.3 7.0 6.1 6.2 6.6 6.6 6.0 5.7 4.1 2.4 4.6 4.7 4.4 5.8 6.1 6.5 6.5 5.9 5.3 5.0 4.7 4.4 4.3 4.0 3.8 3.8 3.9 3.9 3.9 3.8 3.7 3.5 3.3 3.2 3.1 3.2 3.4 3.5 3.8 4.1 4.5 4.7
8.1 7.5 7.5 6.5 5.7 6.7 6.7 5.9 5.8 5.9 5.8 3.6 2.8 4.3 5.5 5.8 6.1 6.7 6.6 5.8 5.6 5.3 4.9 4.4 4.1 3.8 3.8 3.7 3.8 3.7 3.6 3.7 3.6 3.3 3.2 3.2 3.2 3.4 3.4 3.7 3.9 4.4 4.7 4.6
7.5 7.2 6.9 7.3 6.6 6.2 6.3 6.4 6.5 5.8 5.2 5.0 5.1 4.1 5.4 5.5 6.5 6.6 6.5 6.1 5.7 5.4 5.0 4.7 4.1 3.8 3.5 3.4 3.6 3.6 3.5 3.5 3.4 3.5 3.5 3.3 3.4 3.4 3.5 3.9 4.0 4.4 4.5 4.4
7.3 7.5 7.2 6.3 5.6 5.2 6.1 6.1 6.0 5.9 5.6 4.7 5.1 4.0 5.9 6.3 6.2 7.2 6.5 5.9 5.5 5.2 5.1 4.5 4.1 4.0 3.8 3.6 3.6 3.6 3.6 3.6 3.6 3.5 3.3 3.4 3.4 3.4 3.7 3.8 4.0 4.6 4.4 4.1
7.3 7.5 6.4 6.0 6.0 6.6 6.2 6.5 6.5 5.8 4.6 4.8 4.3 4.7 5.4 6.0 6.6 7.2 6.4 5.8 5.5 5.3 5.1 4.6 4.3 4.2 4.1 3.9 3.8 3.7 3.7 3.7 3.7 3.4 3.5 3.5 3.3 3.5 3.8 3.7 4.2 4.3 4.0 3.9
6.3 6.2 6.0 6.0 5.6 6.7 6.2 5.7 5.3 5.3 5.4 4.7 4.6 4.9 4.7 5.9 7.5 6.7 5.9 5.7 5.3 5.3 5.1 5.0 5.0 4.9 4.8 4.4 4.0 3.7 3.7 3.7 3.5 3.5 3.5 3.4 3.6 3.7 3.7 3.7 4.1 4.2 4.0 3.9
5.9 5.6 5.6 5.4 5.3 6.0 6.2 4.8 5.3 4.9 4.8 4.7 5.1 4.7 5.9 7.7 7.4 6.6 7.0 6.2 5.9 5.7 5.7 5.5 5.7 5.5 5.0 4.5 4.0 3.9 3.7 3.5 3.5 3.6 3.7 3.8 3.6 3.7 3.5 3.7 4.2 4.0 3.9 4.0
5.4 5.4 5.3 4.7 5.3 5.7 5.3 4.1 4.9 5.3 5.1 4.8 4.2 5.8 6.6 6.9 7.4 7.1 6.6 6.7 6.7 6.4 6.0 6.1 5.8 5.5 5.3 4.6 4.0 3.6 3.7 3.5 3.7 3.8 3.9 3.9 3.6 3.6 3.6 4.0 4.1 4.0 4.0 4.3
4.9 4.7 5.0 4.9 5.2 4.6 4.1 4.9 4.7 4.7 4.9 5.4 5.3 5.2 6.4 7.3 7.0 6.4 7.0 7.5 7.4 7.2 6.6 6.1 6.0 6.0 5.6 4.6 4.1 3.7 3.6 3.8 3.9 4.0 4.0 3.8 3.8 3.7 3.9 4.0 4.0 4.0 4.2 4.5
4.9 4.9 4.6 5.0 5.1 5.2 4.7 4.1 4.8 5.5 5.1 4.9 5.2 6.0 7.0 7.4 7.0 7.0 7.9 7.4 7.3 7.1 6.9 6.6 6.4 6.2 5.4 4.5 4.0 3.7 3.8 3.9 3.9 4.1 4.0 4.1 4.0 4.0 4.1 4.0 4.0 4.0 4.4 4.7
5.7 5.2 4.9 5.1 5.2 5.1 4.5 5.4 5.3 5.5 5.1 5.9 6.5 7.1 7.4 7.5 7.0 7.3 6.9 6.8 6.7 6.6 6.4 6.2 6.0 5.8 5.1 4.3 3.9 3.7 3.7 3.8 3.9 4.1 4.3 4.4 4.2 4.2 4.2 4.0 4.0 4.3 4.6 4.4
6.1 4.8 4.5 4.6 5.1 5.1 5.4 5.5 5.7 5.4 4.9 7.1 6.8 6.5 6.8 7.1 7.4 7.0 7.0 6.8 6.4 6.2 6.0 5.6 5.7 5.4 4.4 3.7 3.7 3.7 3.6 3.8 4.1 4.4 4.7 4.5 4.3 4.3 4.2 4.0 4.0 4.3 4.4 4.2
6.1 5.5 4.9 4.5 4.9 5.3 5.5 5.5 5.1 7.1 7.6 6.9 7.0 6.8 6.7 6.9 7.1 7.1 7.1 6.6 6.5 6.1 6.0 5.7 5.2 5.1 4.2 3.8 3.8 3.7 3.8 4.0 4.3 4.6 4.9 4.8 4.4 4.6 4.4 4.3 4.1 4.3 4.2 4.4
5.7 5.7 6.6 6.0 6.3 6.5 6.7 6.9 7.4 7.6 7.3 7.5 7.1 7.1 7.2 7.0 7.1 7.4 7.3 7.0 6.7 6.1 6.0 5.4 4.7 4.2 4.0 4.0 3.9 3.8 3.9 4.0 4.5 4.9 5.0 5.1 4.9 5.0 4.9 4.4 4.4 4.5 4.2 4.5
6.1 5.7 5.6 5.7 6.0 7.1 7.9 7.8 7.7 8.0 7.7 7.6 7.4 6.7 6.4 6.4 6.8 7.1 7.4 7.1 6.5 5.9 5.5 4.7 3.9 3.8 3.9 3.8 3.8 3.8 4.0 4.3 4.7 5.0 5.6 5.7 5.6 5.4 5.2 4.7 4.7 4.5 4.4 4.6
6.9 7.2 6.3 5.6 6.1 6.3 6.6 7.0 7.7 8.0 7.6 7.7 7.9 7.1 6.4 6.1 6.7 7.1 7.2 6.8 6.1 5.6 4.9 4.1 3.7 3.3 3.5 3.9 4.1 4.2 4.4 4.8 5.2 5.5 6.0 6.1 6.0 5.7 5.4 5.0 4.8 4.5 4.7 4.5
6.5 6.8 6.9 6.6 6.8 6.7 6.6 7.2 7.3 7.3 7.6 7.8 7.8 7.6 6.6 6.1 6.4 6.5 6.8 6.6 6.1 5.3 4.9 3.9 3.3 3.1 3.5 4.0 4.1 4.3 4.7 5.2 5.6 6.0 6.2 6.3 6.4 6.1 5.8 5.3 5.0 4.8 5.1 5.4
Wind_Speed
2 2 6 8 7 4 4 4 8 6 5 4 10 14 21 9 11 15 12 13 17 18 8 9 9 8 7 6 7 5 2 2 1 1 2 2 3 4 3 6 9 12 12 12
3 8 6 4 4 5 4 3 8 8 1 6 11 17 16 17 11 13 16 17 20 16 13 15 11 8 8 7 6 5 3 3 2 1 2 3 3 4 4 6 10 11 11 12
7 3 6 6 5 5 4 5 5 8 6 5 8 9 6 6 7 7 10 12 16 20 19 13 13 10 8 8 8 6 3 3 3 3 2 2 3 3 2 3 3 3 11 12
7 2 7 4 6 8 4 5 3 4 5 4 5 10 4 7 11 6 9 11 14 17 16 15 16 10 9 8 7 6 3 3 3 2 2 2 2 3 3 4 4 6 11 11
8 8 6 6 7 8 7 3 3 1 3 3 4 5 7 3 8 18 9 13 14 16 20 19 18 14 8 8 7 6 2 3 3 3 2 2 4 4 4 4 6 7 6 9
6 1 6 6 2 3 4 2 4 4 1 2 6 7 4 6 8 7 5 6 10 12 16 15 14 11 8 7 7 6 3 3 3 3 3 4 6 6 6 7 7 6 6 6
1 5 2 3 4 2 3 5 3 5 2 8 4 3 12 9 11 10 10 5 8 11 14 15 17 14 10 9 8 6 3 3 4 4 4 5 6 6 6 8 7 10 8 8
5 9 9 6 7 7 6 8 6 8 4 9 2 9 7 11 9 6 5 8 8 10 13 17 17 14 11 9 8 7 4 3 4 4 5 5 5 4 5 7 8 9 9 9
7 8 2 1 2 4 5 6 3 5 2 3 5 8 7 10 9 8 8 7 9 10 14 16 14 12 9 8 8 7 4 3 3 4 5 5 5 5 7 10 9 9 11 11
4 5 2 3 3 2 4 3 4 2 3 6 10 14 13 13 9 10 8 10 9 9 11 13 15 13 8 7 7 6 3 3 3 4 4 5 5 6 7 9 11 12 12 14
5 5 3 3 9 11 3 3 1 2 5 6 4 13 5 8 10 10 11 11 10 12 14 14 14 11 10 7 7 6 3 2 3 3 5 5 5 7 8 9 11 11 13 14
8 5 9 15 1 1 2 8 12 7 7 3 3 22 1 6 9 8 9 11 8 10 12 14 14 11 9 9 7 6 4 1 3 4 4 6 7 8 9 10 11 12 14 14
10 4 8 7 2 2 7 8 7 1 2 12 6 20 5 6 9 8 10 9 8 9 10 11 12 14 12 9 7 6 4 4 4 4 3 6 7 8 9 11 12 13 14 15
17 8 11 19 12 6 6 11 15 22 12 17 30 29 42 21 25 28 16 10 10 13 14 15 13 13 11 8 7 6 5 3 3 2 3 6 8 9 10 11 12 13 13 15
10 15 18 22 28 6 8 13 16 20 29 18 34 27 39 27 30 29 18 9 9 11 13 17 16 13 10 9 7 5 3 2 1 3 5 6 9 10 10 11 12 13 14 14
2 13 12 24 20 8 9 31 18 24 26 24 29 37 31 31 28 27 27 11 10 13 17 17 16 15 12 8 6 5 2 1 4 4 6 8 10 11 12 12 13 15 15 15
8 5 3 25 4 7 8 30 30 34 26 26 26 41 32 30 26 25 19 10 12 15 15 16 18 16 11 8 7 4 3 3 3 4 6 8 9 10 12 13 13 14 14 15
9 8 9 15 4 15 32 21 10 20 30 26 29 31 31 28 25 6 10 11 13 12 14 15 14 11 10 7 6 5 3 1 3 4 4 7 9 10 12 12 13 13 13 14
19 11 12 13 16 25 26 12 8 10 25 24 19 29 29 25 6 24 11 13 13 15 16 14 13 11 11 9 7 6 3 3 4 5 6 8 9 9 12 12 13 13 14 14
21 22 19 15 16 23 33 15 7 4 21 37 23 25 22 6 7 19 8 9 8 11 13 15 14 13 12 8 7 6 4 2 2 5 7 8 9 8 10 12 13 13 12 14
5 10 22 23 23 17 25 9 5 10 39 5 20 22 15 11 12 2 8 7 11 13 16 14 13 12 10 9 8 7 5 2 1 3 5 7 8 8 9 11 12 12 13 13
17 10 9 10 14 23 6 7 20 35 36 15 7 7 12 13 6 6 9 13 15 17 16 14 13 11 10 9 8 8 6 3 1 3 5 6 6 6 8 11 12 11 12 13
18 18 18 14 8 7 11 27 34 35 30 21 6 5 12 11 9 12 11 14 15 16 15 12 14 13 9 9 8 8 5 3 3 4 3 3 6 7 8 9 11 9 10 10
15 19 19 22 17 21 20 25 27 28 29 22 8 10 15 11 15 14 15 15 15 14 14 11 13 11 9 7 5 5 5 4 4 3 4 4 6 9 9 7 7 8 9 10
19 13 21 22 24 24 26 31 30 18 7 12 9 11 18 13 15 17 14 16 15 15 13 13 12 11 10 9 7 5 4 4 3 3 4 4 4 4 8 8 6 7 9 13
17 23 17 18 30 20 32 33 24 18 23 22 17 10 13 17 18 18 16 17 18 16 14 12 11 12 11 9 8 6 4 3 3 5 4 3 4 5 6 6 9 14 18 22
Wind_Direction
8 91 214 226 202 177 165 199 242 252 242 246 250 251 273 255 218 234 220 207 211 212 193 187 183 175 162 172 166 165 161 237 203 246 329 305 276 286 257 307 334 339 335 337
41 236 202 126 144 170 165 226 263 279 301 193 267 259 263 257 244 223 220 215 215 202 189 189 183 176 178 176 175 175 199 229 216 184 230 239 264 275 273 298 320 318 315 316
177 205 116 151 171 173 212 196 236 240 327 255 298 267 242 277 266 241 221 221 215 206 198 190 189 188 180 183 186 188 206 253 235 222 253 268 268 277 257 261 277 284 297 289
231 197 173 172 215 155 244 211 234 286 3 258 25 291 251 247 276 246 235 212 212 204 200 189 188 188 187 195 180 186 202 250 239 238 258 265 240 260 247 292 281 293 288 284
240 171 177 191 215 166 225 140 168 145 221 346 236 275 262 19 262 266 253 226 216 203 193 189 188 185 191 173 182 186 202 273 266 256 259 285 285 254 269 271 280 288 275 269
248 314 173 206 89 159 126 97 61 59 71 289 222 192 215 185 209 253 247 231 207 198 199 193 180 172 181 171 171 182 207 257 280 285 301 310 286 297 308 315 311 304 300 293
274 211 178 156 116 62 106 76 316 324 347 239 165 217 254 229 221 221 251 283 222 192 187 184 181 182 177 177 182 184 209 270 292 311 312 298 279 286 289 301 301 301 298 289
185 273 178 177 196 181 176 170 168 233 233 280 344 246 264 226 253 253 241 255 236 189 192 196 187 181 178 180 180 179 198 265 301 309 300 287 294 299 289 289 294 291 287 290
176 262 107 168 141 142 183 189 169 100 113 340 240 273 280 261 275 262 257 251 235 198 196 194 182 180 178 175 179 178 197 244 280 295 296 302 286 286 293 296 292 288 291 295
221 303 171 158 136 44 177 170 78 11 257 264 267 276 253 242 237 241 238 235 233 201 199 193 184 180 175 171 161 161 184 259 291 298 288 298 295 292 292 294 293 292 293 292
145 156 223 124 212 168 132 213 129 163 163 204 275 268 203 221 189 221 224 226 215 200 200 195 187 174 170 159 163 172 182 253 289 290 278 283 299 302 297 292 293 294 293 292
202 159 233 233 210 332 221 199 176 202 228 252 141 271 189 201 207 221 227 233 218 202 194 193 184 162 165 171 175 179 187 245 255 254 279 302 301 300 296 295 296 299 296 292
177 218 248 260 90 13 221 199 222 237 143 207 180 253 107 204 242 223 233 227 218 198 182 182 173 181 177 170 175 178 179 225 237 256 290 304 301 305 302 302 300 300 296 294
162 179 198 233 231 133 185 217 218 220 227 233 232 256 268 265 277 273 264 228 217 203 192 190 187 183 171 167 174 184 195 210 249 293 305 298 310 311 302 303 302 299 300 301
174 229 227 245 255 181 211 236 217 216 228 219 250 244 254 264 265 273 279 248 207 193 194 196 190 176 172 173 174 167 179 221 302 331 314 310 311 305 307 307 302 307 310 305
218 247 246 254 255 197 249 255 240 231 237 243 252 259 260 268 278 282 278 259 213 203 205 198 187 170 174 167 157 165 179 21 7 333 327 317 313 315 310 310 317 317 313 308
175 195 205 251 196 118 270 247 240 255 240 232 244 252 273 271 267 264 268 210 217 210 200 186 181 168 158 146 145 147 77 29 351 326 313 311 314 313 319 322 322 318 313 308
208 211 228 248 92 228 250 269 206 231 251 239 245 261 260 263 272 247 224 210 212 197 183 181 169 137 126 122 106 108 89 48 347 324 311 314 321 317 324 322 324 313 311 312
229 212 237 230 232 252 284 220 160 200 265 247 220 244 254 259 336 280 214 210 207 187 179 169 146 126 124 125 126 114 105 40 2 338 328 326 328 321 324 315 317 316 314 310
227 231 234 233 239 243 248 266 151 104 270 260 221 240 243 141 240 259 166 171 152 141 143 139 129 121 120 126 120 117 101 73 340 337 331 336 329 321 312 311 311 312 304 306
171 210 224 232 243 247 253 141 138 192 251 156 209 224 227 195 218 137 113 104 129 134 133 123 122 124 124 128 133 126 137 165 251 325 332 334 327 314 302 304 304 306 309 311
215 189 215 231 246 254 178 121 210 240 257 258 210 190 193 214 151 144 144 142 136 132 131 128 125 127 132 139 141 148 165 172 73 10 346 334 310 306 312 304 300 309 311 311
234 211 221 200 207 208 193 218 225 239 243 241 184 196 204 181 182 160 153 150 147 144 141 139 134 133 142 147 156 162 150 129 70 17 349 306 306 321 311 303 306 318 317 320
222 228 228 240 232 233 225 228 234 231 233 237 204 184 182 189 170 165 155 153 148 149 146 141 137 140 145 151 137 126 128 102 78 33 20 345 341 325 316 309 315 316 323 324
222 201 223 242 244 245 249 244 239 234 230 210 190 189 196 179 182 162 159 159 156 152 147 150 151 147 149 156 141 134 119 104 97 84 42 357 333 315 309 318 313 326 325 333
221 225 220 229 229 225 241 249 246 221 219 212 197 196 200 192 174 164 163 161 156 152 149 150 146 142 151 149 138 131 123 116 101 75 40 357 328 321 320 317 319 335 348 347